Location: Ottawa
(45.4170°N, 75.7000°W)
Time: 00:25:51
(UTC-04:00)

Envisat - Pass Details

Date: 02 May 2019
Orbit: 764 x 766 km, 98.2° (Epoch: 19 May)

Event Time Altitude Azimuth Distance (km) Brightness Sun altitude
Rises 20:57:31 0° 215° (SW) 3,220 6.3 -8.1°
Reaches altitude 10° 21:00:57 10° 240° (WSW) 2,300 5.9 -8.6°
Maximum altitude 21:03:37 14° 272° (W) 2,022 6.1 -9.0°
Drops below altitude 10° 21:06:17 10° 304° (NW) 2,309 7.2 -9.4°
Sets 21:09:46 0° 329° (NNW) 3,241 7.6 -9.9°
